Baltimore, MD

5:50 PM EDT on September 24, 2016 (GMT -0400)
Martin State

Weather History for KMTN - February, 2014

Change the Weather History Date:

Sunday, February 9, 2014

  Actual Average Record
Temperature  
Mean Temperature 26 °F -  
Max Temperature 30 °F 41 °F 62 °F (2001)
Min Temperature 23 °F 26 °F 17 °F (2000)
Degree Days  
Heating Degree Days 38    
Moisture  
Dew Point 23 °F    
Average Humidity 85    
Maximum Humidity 100    
Minimum Humidity 55    
Precipitation  
Precipitation 0.00 in - - ()
Sea Level Pressure  
Sea Level Pressure 30.16 in    
Wind  
Wind Speed 1 mph (SSE)    
Max Wind Speed 10 mph    
Max Gust Speed -    
Visibility 6 miles    
Events Snow    
Averages and records for this station are not official NWS values.
T = Trace of Precipitation, MM = Missing Value Source: NWS Daily Summary

Daily Weather History Graph

Daily Weather History Graph

Search for Another Location

Airport or City:

Trip Planner

Search our weather history database for the weather conditions in past years. The results will help you decide how hot, cold, wet, or windy it might be!

Date:

Astronomy

Feb. 09, 2014 Rise Set
Actual Time 7:04 AM EST 5:35 PM EST
Civil Twilight 6:36 AM EST 6:03 PM EST
Nautical Twilight 6:05 AM EST 6:35 PM EST
Astronomical Twilight 5:33 AM EST 7:06 PM EST
Moon 1:14 PM EST (2/9) 3:07 AM EST (2/9)
Length of Visible Light 11h 26m
Length of Day
10h 31m
Waxing Gibbous, 77% of the Moon is Illuminated
Feb 9
Waxing Gibbous
Feb 14
Full
Feb 22
Last Quarter
Mar 1
New
Mar 8
First Quarter

Hourly Weather History & Observations

Time (EST) Temp. Windchill Dew Point Humidity Pressure Visibility Wind Dir Wind Speed Gust Speed Precip Events Conditions
12:15 AM 23.0 °F - 21.2 °F 93% 30.24 in 7.0 mi Calm Calm - N/A   Clear
12:33 AM 23.0 °F - 23.0 °F 100% 30.23 in 7.0 mi Calm Calm - N/A   Clear
12:54 AM 23.0 °F - 23.0 °F 100% 30.23 in 7.0 mi Calm Calm - N/A   Clear
1:15 AM 23.0 °F - 23.0 °F 100% 30.22 in 5.0 mi Calm Calm - N/A   Clear
1:33 AM 23.0 °F - 21.2 °F 93% 30.22 in 5.0 mi Calm Calm - N/A   Clear
1:54 AM 23.0 °F 18.4 °F 21.2 °F 93% 30.23 in 5.0 mi WNW 3.5 mph - N/A   Clear
2:15 AM 23.0 °F - 21.2 °F 93% 30.23 in 7.0 mi Calm Calm - N/A   Clear
2:33 AM 23.0 °F - 21.2 °F 93% 30.22 in 5.0 mi Calm Calm - N/A   Clear
2:54 AM 23.0 °F - 21.2 °F 93% 30.21 in 5.0 mi Calm Calm - N/A   Mostly Cloudy
3:15 AM 24.8 °F - 23.0 °F 93% 30.23 in 7.0 mi Calm Calm - N/A   Overcast
3:33 AM 26.6 °F - 23.0 °F 86% 30.23 in 7.0 mi Calm Calm - N/A   Overcast
3:54 AM 26.6 °F - 24.8 °F 93% 30.23 in 7.0 mi Calm Calm - N/A   Overcast
4:15 AM 26.6 °F - 23.0 °F 86% 30.22 in 10.0 mi Calm Calm - N/A   Overcast
4:33 AM 26.6 °F - 23.0 °F 86% 30.23 in 10.0 mi Calm Calm - N/A   Overcast
4:54 AM 26.6 °F - 23.0 °F 86% 30.22 in 10.0 mi Calm Calm - N/A   Overcast
5:15 AM 28.4 °F - 21.2 °F 74% 30.22 in 10.0 mi Calm Calm - N/A   Overcast
5:33 AM 28.4 °F - 21.2 °F 74% 30.22 in 10.0 mi Calm Calm - N/A   Overcast
5:45 AM 26.6 °F - 19.4 °F 74% 30.22 in 10.0 mi Calm Calm - N/A   Overcast
6:45 AM 26.6 °F - 15.8 °F 64% 30.22 in 10.0 mi Calm Calm - N/A   Overcast
7:45 AM 26.6 °F - 15.8 °F 64% 30.21 in 10.0 mi Calm Calm - N/A   Overcast
8:45 AM 28.4 °F - 14.0 °F 55% 30.23 in 10.0 mi Calm Calm - N/A   Overcast
9:45 AM 28.4 °F - 14.0 °F 55% 30.23 in 10.0 mi Calm Calm - N/A   Overcast
10:50 AM 28.4 °F - 15.8 °F 59% 30.20 in 10.0 mi Calm Calm - N/A   Overcast
11:50 AM 30.2 °F 22.6 °F 15.8 °F 55% 30.12 in 10.0 mi ESE 8.1 mph - N/A   Scattered Clouds
12:55 PM 30.2 °F 26.7 °F 17.6 °F 60% 30.12 in 10.0 mi ESE 3.5 mph - N/A   Mostly Cloudy
2:45 PM 30.2 °F 24.3 °F 19.4 °F 64% 30.06 in 5.0 mi ESE 5.8 mph - N/A   Overcast
3:45 PM 30.2 °F 21.3 °F 24.8 °F 80% 30.05 in 5.0 mi SE 10.4 mph - N/A   Overcast
4:28 PM 30.2 °F 26.7 °F 24.8 °F 80% 30.05 in 2.0 mi South 3.5 mph - N/A Snow Light Snow
4:45 PM 30.2 °F 22.6 °F 26.6 °F 86% 30.05 in 1.0 mi SSE 8.1 mph - N/A   Overcast
5:45 PM 30.2 °F 25.4 °F 28.4 °F 93% 30.04 in 1.5 mi SSE 4.6 mph - N/A Snow Light Snow
6:45 PM 30.2 °F 26.7 °F 30.2 °F 100% 30.05 in 2.0 mi NW 3.5 mph - N/A Snow Light Snow
7:45 PM 30.2 °F - 28.4 °F 93% 30.05 in 2.5 mi Calm Calm - N/A Snow Light Snow
8:45 PM 30.2 °F - 28.4 °F 93% 30.06 in 2.5 mi Calm Calm - N/A   Overcast
9:45 PM 26.6 °F - 26.6 °F 100% 30.08 in 3.0 mi Calm Calm - N/A   Overcast
10:15 PM 28.4 °F - 28.4 °F 100% 30.08 in 1.8 mi Calm Calm - N/A   Overcast
10:36 PM 30.2 °F - 30.2 °F 100% 30.08 in 2.5 mi Calm Calm - N/A   Overcast
10:57 PM 28.4 °F 23.3 °F 28.4 °F 100% 30.08 in 3.0 mi NW 4.6 mph - N/A   Mist
11:15 PM 28.4 °F - 28.4 °F 100% 30.09 in 2.5 mi Calm Calm - N/A   Mist
11:36 PM 28.4 °F 24.6 °F 28.4 °F 100% 30.07 in 2.5 mi NNW 3.5 mph - N/A   Mist
11:57 PM 28.4 °F 22.2 °F 28.4 °F 100% 30.08 in 4.0 mi West 5.8 mph - N/A   Clear